• Processing (Info)

  • MPEC 2006-Y70 : 2006 YP44

    The following Minor Planet Electronic Circular may be linked-to from your own Web pages, but must not otherwise be redistributed electronically.

    A form allowing access to any MPEC is at the bottom of this page.


    Read MPEC 2006-Y69 Read MPEC 2006-Y71


    M.P.E.C. 2006-Y70                                Issued 2006 Dec. 29, 12:58 UT
    
         The Minor Planet Electronic Circulars contain information on unusual
             minor planets and routine data on comets.  They are published
       on behalf of Commission 20 of the International Astronomical Union by the
              Minor Planet Center, Smithsonian Astrophysical Observatory,
                              Cambridge, MA 02138, U.S.A.
    
                 Prepared using the Tamkin Foundation Computer Network
    
                                  MPC@CFA.HARVARD.EDU
              URL http://cfa-www.harvard.edu/iau/mpc.html  ISSN 1523-6714
    
                                       2006 YP44
    
    Observations:
         K06Y44P* C2006 12 29.10946 04 16 50.95 +28 01 52.8          17.6 V EY070G96
         K06Y44P  C2006 12 29.11382 04 16 59.59 +28 02 23.7          17.8 V EY070G96
         K06Y44P  C2006 12 29.11822 04 17 08.41 +28 02 57.0          16.9 V EY070G96
         K06Y44P  C2006 12 29.12251 04 17 16.80 +28 03 25.6          18.2 V EY070G96
         K06Y44P  C2006 12 29.15633 04 18 23.36 +28 07 20.6          17.9 V EY070G96
         K06Y44P  C2006 12 29.15663 04 18 23.97 +28 07 22.5          17.8 V EY070G96
         K06Y44P  C2006 12 29.15693 04 18 24.55 +28 07 24.6          17.6 V EY070G96
         K06Y44P  C2006 12 29.15723 04 18 25.16 +28 07 26.7          17.6 V EY070G96
         K06Y44P  C2006 12 29.20068 04 19 46.67 +28 11 55.7          18.4 R EY070H36
         K06Y44P  C2006 12 29.20142 04 19 51.53 +28 12 24.3          17.2 V EY070G96
         K06Y44P  C2006 12 29.20178 04 19 52.24 +28 12 26.2                 EY070G96
         K06Y44P  C2006 12 29.20213 04 19 52.84 +28 12 29.3          15.3 V EY070G96
         K06Y44P  C2006 12 29.20265 04 19 50.44 +28 12 07.8          18.1 R EY070H36
         K06Y44P  C2006 12 29.20422 04 19 53.53 +28 12 18.5          18.1 R EY070H36
         K06Y44P  C2006 12 29.20580 04 19 56.66 +28 12 28.7          18.4 R EY070H36
         K06Y44P  C2006 12 29.20757 04 20 00.08 +28 12 40.8          18.5 R EY070H36
         K06Y44P 2C2006 12 29.37803 04 25 33.22 +28 30 09.3          17.3 R EY070H06
         K06Y44P 2C2006 12 29.38243 04 25 41.83 +28 30 35.2          18.1 R EY070H06
         K06Y44P 2C2006 12 29.38678 04 25 50.26 +28 30 56.8          18.0 R EY070H06
    
    Observer details:
    G96 Mt. Lemmon Survey.  Observer R. A. Kowalski.  Measurers E. C. Beshore,
        E. J. Christensen, G. J. Garradd, A. R. Gibbs, A. D. Grauer, R. E. Hill,
        R. A. Kowalski, S. M. Larson, R. H. McNaught.  1.5-m reflector + CCD.
    H06 RAS Observatory, Mayhill.  Observer R. Hutsebaut.  0.25-m reflector + CCD.
    H36 Sandlot Observatory, Scranton.  Observer G. Hug.  0.30-m
        Schmidt-Cassegrain + CCD.
    
    Orbital elements:
    2006 YP44                                                Earth MOID = 0.0014 AU
    Epoch 2007 Apr. 10.0 TT = JDT 2454200.5                 MPC
    M  31.75129              (2000.0)            P               Q
    n   0.24708907     Peri.  333.43228     +0.47504754     -0.87929750
    a   2.5151682      Node    88.18829     +0.81330329     +0.42391854
    e   0.6219772      Incl.    1.95761     +0.33595773     +0.21709210
    P   3.99           H   23.5           G   0.15           U   8
    Residuals in seconds of arc
    061229 G96  0.2-  0.3-    061229 G96  0.1-  0.4-    061229 H36  0.3+  0.1+
    061229 G96  0.2-  0.4-    061229 H36  0.4+  0.2+    061229 H36  0.2-  0.9+
    061229 G96  1.2+  1.7+    061229 G96  0.6+  0.1+    061229 H06  0.1+  0.1-
    061229 G96  0.1-  0.0     061229 G96  0.8+  0.4-    061229 H06  0.4+  1.3+
    061229 G96  0.5-  0.3-    061229 G96  0.3-  0.4+    061229 H06  0.4-  1.3-
    061229 G96  0.3-  0.5-    061229 H36  0.6-  0.5-
    061229 G96  0.4-  0.5-    061229 H36  0.3-  0.1+
    
    Ephemeris:
    2006 YP44                a,e,i = 2.52, 0.62, 2                   q = 0.9508
    Date    TT    R. A. (2000) Decl.     Delta      r     Elong.  Phase     V
    2006 12 21    23 56.61   -01 58.3    0.0479   0.985    89.6    87.6    19.9
    2006 12 23    00 42.30   +04 55.3    0.0409   0.992   100.7    76.9    19.2
    2006 12 25    01 43.99   +13 37.6    0.0368   1.000   116.0    62.1    18.5
    2006 12 27    02 58.56   +22 08.3    0.0368   1.009   133.4    45.1    18.1
    2006 12 29    04 12.92   +27 49.7    0.0408   1.018   148.7    30.1    17.9
    2006 12 31    05 14.08   +30 22.3    0.0480   1.028   159.7    19.4    17.9
    2007 01 02    05 59.09   +31 02.9    0.0572   1.039   166.4    12.9    18.1
    2007 01 04    06 31.19   +30 54.6    0.0678   1.050   170.0     9.3    18.4
    2007 01 06    06 54.31   +30 28.9    0.0792   1.062   171.7     7.7    18.7
    2007 01 08    07 11.35   +29 58.7    0.0911   1.074   172.3     7.0    19.0
    2007 01 10    07 24.22   +29 28.9    0.104    1.086   172.6     6.7    19.3
    2007 01 12    07 34.19   +29 01.2    0.117    1.099   172.7     6.5    19.5
    2007 01 14    07 42.05   +28 36.1    0.130    1.112   172.8     6.3    19.8
    2007 01 16    07 48.38   +28 13.3    0.143    1.126   172.8     6.2    20.0
    2007 01 18    07 53.56   +27 52.5    0.157    1.140   172.7     6.3    20.3
    2007 01 20    07 57.87   +27 33.6    0.172    1.155   172.5     6.4    20.5
    2007 01 22    08 01.51   +27 16.1    0.187    1.169   172.0     6.8    20.7
    2007 01 24    08 04.63   +26 59.9    0.202    1.184   171.3     7.3    20.9
    2007 01 26    08 07.35   +26 44.6    0.217    1.199   170.4     7.9    21.1
    2007 01 28    08 09.77   +26 30.1    0.233    1.215   169.3     8.7    21.4
    2007 01 30    08 11.94   +26 16.2    0.250    1.230   168.1     9.5    21.6
    2007 02 01    08 13.92   +26 02.9    0.266    1.246   166.8    10.4    21.8
    2007 02 03    08 15.75   +25 50.0    0.284    1.262   165.5    11.3    22.0
    2007 02 05    08 17.47   +25 37.5    0.301    1.278   164.0    12.3    22.2
    2007 02 07    08 19.11   +25 25.3    0.320    1.295   162.5    13.2    22.4
    2007 02 09    08 20.70   +25 13.2    0.338    1.311   161.0    14.2    22.5
    
    Timothy B. Spahr             (C) Copyright 2006 MPC           M.P.E.C. 2006-Y70
    

    Read MPEC 2006-Y69 Read MPEC 2006-Y71


    MPEC number:

    Enter an MPEC number in one of the following forms:

    • 1997-B01 (the full form)
    • J97B01 (the packed version of the full form)
    • B01 (the abbreviated form)